Location: ????????
(55.6333°N, 37.7000°E)
Time: 06:43:14
(UTC+00:00)

Cosmos 2292 Rocket - Pass Details

Date: 19 May 2025
Orbit: 369 x 1266 km, 83.0° (Epoch: 23 June)

Event Time Altitude Azimuth Distance (km) Brightness Sun altitude
Exits shadow 23:09:44 11° 177° (S) 2,444 6.1 -11.2°
Maximum altitude 23:15:06 65° 98° (E) 797 4.2 -10.9°
Drops below altitude 10° 23:19:25 10° 17° (NNE) 1,966 7.6 -10.6°
Sets 23:21:22 0° 14° (NNE) 2,756 8.7 -10.5°
